Location: Temecula
(33.4977°N, 117.1073°W)
Time: 13:27:35
(UTC-07:00)

ISS - Visible Passes

Search period start: 24 September 2022 00:00
Search period end: 04 October 2022 00:00
Orbit: 414 x 417 km, 51.6° (Epoch: 24 September)

Date Brightness Start Highest point End Pass type
(mag) Time Alt. Az. Time Alt. Az. Time Alt. Az.
30 Sep -1.3 20:06:18 10° N 20:07:20 14° N 20:07:20 14° N visible
01 Oct -1.2 19:19:15 10° NNE 19:19:21 10° NNE 19:19:27 10° NNE visible
01 Oct -0.5 20:53:15 10° NW 20:53:32 12° NW 20:53:32 12° NW visible
02 Oct -2.4 20:04:40 10° NNW 20:06:55 30° N 20:06:55 30° N visible
03 Oct -2.2 19:16:17 10° NNW 19:18:56 21° NE 19:20:24 16° ENE visible
03 Oct -0.5 20:52:40 10° WNW 20:53:18 14° WNW 20:53:18 14° WNW visible
